Location: Unspecified
(32.6610°N, 0.0000°E)
Time: 13:51:06
(UTC+00:00)

CZ-6A DEB - Visible Passes

Search period start: 04 April 2026 00:00
Search period end: 14 April 2026 00:00
Orbit: 651 x 794 km, 89.0° (Epoch: 28 March)

Date Brightness Start Highest point End Pass type
(mag) Time Alt. Az. Time Alt. Az. Time Alt. Az.
4 Apr ? 04:44:37 10° ESE 04:48:04 18° E 04:51:28 10° NE visible
6 Apr ? 04:44:03 10° SE 04:47:58 22° E 04:51:49 10° NNE visible
8 Apr ? 04:43:37 10° SE 04:47:53 27° E 04:52:02 10° NNE visible
10 Apr ? 04:43:15 10° SE 04:47:47 33° E 04:52:10 10° NNE visible
11 Apr ? 03:57:30 10° E 03:58:33 11° ENE 03:59:35 10° ENE visible
12 Apr ? 04:42:58 10° SSE 04:47:42 41° E 04:52:15 10° NNE visible
13 Apr ? 03:56:04 10° ESE 03:58:24 13° ENE 04:00:41 10° NE visible
